Torax TimeFrame

111 2022-07-06 18:10:03
NameTime LeftWindow Opens
Old World Drake2d 23:532022-07-04 06:25:02
Xynak, the Arcane Master1d 23:232022-07-05 06:55:01
Jade Dragonite1d 11:082022-07-05 19:10:02
Crantos, Defender of Ultimation1d 04:482022-07-06 01:30:02
Nafir, God of Desolation1d 03:232022-07-06 02:55:02
Grivvek, Protector of the Brood0d 20:382022-07-06 09:40:02
Slashbrood, Devourer of the Blackness0d 18:082022-07-06 12:10:03
Amalgamated Apparition0d 13:582022-07-06 16:20:02
Anguish0d 13:332022-07-06 16:45:02
The Emerald Assassin0d 13:032022-07-06 17:15:02
Ebliss, Fallen Angel of Despair0d 13:032022-07-06 17:15:03
Dreg nor, Keeper of the Infernal Essence0d 12:582022-07-06 17:20:02
Wanhiroeaz the Devourer0d 12:532022-07-06 17:25:02
Lord Varan0d 09:532022-07-06 20:25:02
Lady Ariella0d 09:132022-07-06 21:05:02
Lacuste of the Swarm0d 08:382022-07-06 21:40:02
Kro Shuk, Doomslayer0d 06:232022-07-06 23:55:02
Skybrine The Inescapable0d 06:032022-07-07 00:15:02
Hackerphage, Protector of the Gateway0d 05:232022-07-07 00:55:02
Mistress of the Sword0d 05:082022-07-07 01:10:01
Bloodchill the Grizzly0d 03:532022-07-07 02:25:01
Vitkros, Hydra of the Deep0d 02:582022-07-07 03:20:02
Lord Suka0d 02:132022-07-07 04:05:02
Rillax, Twin of Wisdom0d 01:082022-07-07 05:10:02
Nessam0d 01:082022-07-07 05:10:02
Karvaz, Lord of Alsayic0d 00:232022-07-07 05:55:02
Nayark the Mummified Sorcerer0d 00:312022-07-07 06:50:01
Brutalitar, Lord of the Underworld0d 01:162022-07-07 07:35:02
Akkel the Enflamed Warrior0d 01:262022-07-07 07:45:03
Rezun, Demon of Madness0d 01:462022-07-07 08:05:01
Lord Narada0d 02:462022-07-07 09:05:02
Freezebreed, The Frozen Manipulator0d 02:512022-07-07 09:10:03
Samatha Dark-Soul0d 03:262022-07-07 09:45:02
Archdevil Yirkon0d 03:262022-07-07 09:45:02
Shadow0d 03:462022-07-07 10:05:02
Tylos, The Lord Master0d 03:462022-07-07 10:05:03
Synge, The Red Dragon0d 04:012022-07-07 10:20:02
Baron Mu, Dark Rider of the Undead0d 06:012022-07-07 12:20:01
Envar, Demon of Lunacy0d 06:212022-07-07 12:40:01
Banok, Demon of Insanity0d 06:412022-07-07 13:00:02
Gnorb0d 07:212022-07-07 13:40:02
Crane0d 07:412022-07-07 14:00:03
Garland, The Lord Keeper0d 07:512022-07-07 14:10:02
Hyrak, Bringer of Nightmares0d 09:312022-07-07 15:50:02
Great Lord Ganeshan0d 09:412022-07-07 16:00:03
Quiver, The Renegade0d 10:012022-07-07 16:20:02
Crolvak, the Fire Master0d 10:112022-07-07 16:30:02
Villax, Twin of Strength0d 11:162022-07-07 17:35:02
Ancient Magus Tarkin0d 11:262022-07-07 17:45:02
Smoot the Yeti0d 11:312022-07-07 17:50:02
King Ashnar, Lord of the Unliving0d 12:462022-07-07 19:05:02
Firan, the Fire Deity0d 14:062022-07-07 20:25:03
Kretok, Descendant of Nature0d 17:462022-07-08 00:05:01
Tsort0d 19:212022-07-08 01:40:02
Zertan, The Collector0d 19:312022-07-08 01:50:02
Anvilfist0d 23:262022-07-08 05:45:02
Pinosis1d 01:062022-07-08 07:25:02
Murderface1d 01:412022-07-08 08:00:01
Rotborn, Eater of the Dead1d 02:162022-07-08 08:35:01
Melt Bane, The Forbidden Demon Dragon1d 02:462022-07-08 09:05:02
Sylvanna TorLai1d 03:362022-07-08 09:55:02
Lady Chaos, Queen of the Abyss1d 03:412022-07-08 10:00:02
Dexor, Victor of Veldara1d 04:462022-07-08 11:05:02
Jorun the Blazing Swordsman1d 06:112022-07-08 12:30:02
Howldroid, Tormentor of the Pit1d 06:412022-07-08 13:00:02
Jazzmin, Maiden of Vitality1d 06:512022-07-08 13:10:01
Terrance, Rebel of Rallis1d 07:062022-07-08 13:25:03
Rancid, Lord of Thugs1d 08:062022-07-08 14:25:03
Lord Xordam1d 09:112022-07-08 15:30:02
Bolkor, the Holy Master1d 10:312022-07-08 16:50:02
Threk, King of Lords1d 10:562022-07-08 17:15:02
Felroc, Overseer of Hellfire1d 10:562022-07-08 17:15:02
Nar Zhul, Slayer of All1d 11:012022-07-08 17:20:02
Volgan the Living Ironbark1d 11:162022-07-08 17:35:02
Lord Sibannac1d 11:412022-07-08 18:00:03
Sarcrina the Astral Priestess1d 11:512022-07-08 18:10:02
Traxodon the Plaguebringer1d 12:062022-07-08 18:25:02
Animated Captain1d 12:462022-07-08 19:05:03
Numerocure, The Black Messenger of Evil1d 15:062022-07-08 21:25:02
Keeper of Nature1d 16:012022-07-08 22:20:01
Arcon, the Arcane Deity1d 16:162022-07-08 22:35:02
Gregov, Knight of the Woods1d 18:312022-07-09 00:50:02
Varsanor, Master of Darkness1d 18:362022-07-09 00:55:01
Detox1d 21:212022-07-09 03:40:02
Ganja the Stone Golem2d 02:062022-07-09 08:25:02
Esquin, the Kinetic Master2d 03:012022-07-09 09:20:02
Windstrike The Vile2d 07:212022-07-09 13:40:02
Ag Nabak the Abomination2d 07:512022-07-09 14:10:01
Shayar, the Shadow Deity2d 09:562022-07-09 16:15:02
Ormsul the Putrid2d 14:312022-07-09 20:50:02
Emperor Neudeus, Controller of the Universe2d 17:012022-07-09 23:20:01
Raiyar, the Shadow Master2d 18:512022-07-10 01:10:02
Holgor, the Holy Deity2d 20:212022-07-10 02:40:01
Sigil, Lich of Woe2d 21:462022-07-10 04:05:02
Gorganus of the Wood2d 23:412022-07-10 06:00:02
Valzek, Harbinger of Death3d 04:012022-07-10 10:20:03
Straya, the Underworld Ruler3d 05:262022-07-10 11:45:02
Kinark, the Kinetic Deity3d 13:162022-07-10 19:35:02
Skarthul the Avenged3d 17:112022-07-10 23:30:02
Q-SEC Commander3d 19:412022-07-11 02:00:02
Balerion, Dragon of Dread4d 13:212022-07-11 19:40:01
Agnar, Astral Betrayer4d 14:512022-07-11 21:10:03
Murfax, Beast of the Caves4d 15:012022-07-11 21:20:02
Dlanod, the Crazed Chancellor4d 17:562022-07-12 00:15:02
Viserion, the Necrodragon4d 18:062022-07-12 00:25:01
Thanox, Balancer of Chaos6d 09:112022-07-13 15:30:03
Zikkir the Dark Archer400d 01:482021-06-02 04:30:02
Shaik, Servant of Arkron222d 16:032021-11-26 14:15:03
Rook, Hand of Arkron222d 03:132021-11-27 03:05:02
Noxious Slug125d 22:182022-03-03 08:00:02
Beast of Cards125d 21:532022-03-03 08:25:02